Onweer radar Meer informatie blitzortung!


Regen radar Meer informatie rain snow radar


Bezoek onze andere website:

Template documentation
and downloads

And another site



Het weer levert geen direct gevaar op.    Er zijn geen waarschuwingen afgegeven.

Select another period ( hide this area )

Eenheden Periode Custom range Directly to
Metrisch Engels Beide
Dagelijkse Wekelijkse Maandelijkse Jaarlijkse
use both date-selectors for a custom range
previous Dag
With this date

WeatherUnderground graphs for this period ( click here )


Dagelijkse Samenvatting Dinsdag 26 maart 2019
Tijd Temp. ( °C ) Dew pt. ( °C ) Wind ( km/h ) van Windvlaag ( km/h ) Luchtdruk ( hPa ) Humid.( % ) Rainrate ( cm )
Hoog7,0 -1,1 8,0 NW ( 18/66 ) 12,9 1033,7 58 -
Gemiddeld6,4 -2,1 2,2 Kalm #10/30 6,9 1032,8 55 -
Laag4,9 -3,3 -   0,0 1032,4 52 -
Dagelijkse Tabular details for Dinsdag 26 maart 2019
Tijd Temp. ( °C ) Dew pt. ( °C ) Wind ( km/h ) van Windvlaag ( km/h ) Luchtdruk ( hPa ) Humid.( % ) Rainrate ( cm )
00:30 7,0 -1,1 1,6 NW 8,0 1032,4 56 -
01:30 6,9 -1,1 1,6 NNW 6,4 1032,4 57 -
01:45 6,9 -1,1   Kalm 6,4 1032,4 58 -
02:00 7,0 -1,1 3,2 NNW 9,7 1032,4 56 -
02:30 7,0 -1,7 4,8 NW 11,3 1032,7 55 -
02:45 6,9 -1,7 1,6 WNW 8,0 1032,4 55 -
03:00 6,9 -1,7 1,6 NNW 8,0 1032,4 55 -
03:15 6,8 -1,1   Kalm 8,0 1032,4 57 -
03:30 6,7 -1,1 3,2 NW 6,4 1032,7 57 -
03:45 6,7 -1,1 3,2 NNW 9,7 1032,4 57 -
04:00 6,7 -1,7 8,0 Noorden 9,7 1032,7 55 -
04:15 6,7 -2,2 4,8 NW 12,9 1032,4 54 -
04:30 6,7 -2,2 3,2 NO 11,3 1032,7 53 -
04:45 6,7 -2,2 4,8 Noorden 8,0 1032,7 53 -
05:00 6,6 -2,8 3,2 Noorden 11,3 1032,7 52 -
05:15 6,4 -2,8 3,2 NNW 8,0 1033,1 52 -
05:30 6,4 -2,8 1,6 NNO 6,4 1032,7 52 -
05:45 6,2 -2,8   Kalm 6,4 1032,7 53 -
06:00 5,9 -3,3   Kalm 1,6 1032,7 53 -
06:15 5,3 -2,8   Kalm   1032,7 56 -
06:30 4,9 -2,8   Kalm   1032,7 58 -
06:45 5,4 -2,8   Kalm   1032,7 57 -
07:00 5,7 -2,8   Kalm   1033,1 56 -
07:15 5,9 -2,8   Kalm 8,0 1033,1 54 -
07:30 5,9 -2,8 1,6 WNW 6,4 1033,4 54 -
07:45 6,1 -2,8   Kalm 4,8 1033,4 54 -
08:00 6,3 -2,8 3,2 WNW 4,8 1033,4 54 -
08:15 6,4 -2,2 4,8 WNW 4,8 1033,7 55 -
08:30 6,6 -2,2 3,2 NW 11,3 1033,7 55 -
08:45 6,7 -1,7 3,2 NNW 9,7 1033,7 56 -
Dagelijkse Samenvatting Dinsdag 26 maart 2019
Tijd Temp. ( °C ) Dew pt. ( °C ) Wind ( km/h ) van Windvlaag ( km/h ) Luchtdruk ( hPa ) Humid.( % ) Rainrate ( cm )
Hoog7,0 -1,1 8,0 NW ( 18/66 ) 12,9 1033,7 58 -
Gemiddeld6,4 -2,1 2,2 Kalm #10/30 6,9 1032,8 55 -
Laag4,9 -3,3 -   0,0 1032,4 52 -
Dagelijkse Tabular details for Dinsdag 26 maart 2019
Tijd Temp. ( °C ) Dew pt. ( °C ) Wind ( km/h ) van Windvlaag ( km/h ) Luchtdruk ( hPa ) Humid.( % ) Rainrate ( cm )
00:30 7,0 -1,1 1,6 NW 8,0 1032,4 56 -
01:30 6,9 -1,1 1,6 NNW 6,4 1032,4 57 -
01:45 6,9 -1,1   Kalm 6,4 1032,4 58 -
02:00 7,0 -1,1 3,2 NNW 9,7 1032,4 56 -
02:30 7,0 -1,7 4,8 NW 11,3 1032,7 55 -
02:45 6,9 -1,7 1,6 WNW 8,0 1032,4 55 -
03:00 6,9 -1,7 1,6 NNW 8,0 1032,4 55 -
03:15 6,8 -1,1   Kalm 8,0 1032,4 57 -
03:30 6,7 -1,1 3,2 NW 6,4 1032,7 57 -
03:45 6,7 -1,1 3,2 NNW 9,7 1032,4 57 -
04:00 6,7 -1,7 8,0 Noorden 9,7 1032,7 55 -
04:15 6,7 -2,2 4,8 NW 12,9 1032,4 54 -
04:30 6,7 -2,2 3,2 NO 11,3 1032,7 53 -
04:45 6,7 -2,2 4,8 Noorden 8,0 1032,7 53 -
05:00 6,6 -2,8 3,2 Noorden 11,3 1032,7 52 -
05:15 6,4 -2,8 3,2 NNW 8,0 1033,1 52 -
05:30 6,4 -2,8 1,6 NNO 6,4 1032,7 52 -
05:45 6,2 -2,8   Kalm 6,4 1032,7 53 -
06:00 5,9 -3,3   Kalm 1,6 1032,7 53 -
06:15 5,3 -2,8   Kalm   1032,7 56 -
06:30 4,9 -2,8   Kalm   1032,7 58 -
06:45 5,4 -2,8   Kalm   1032,7 57 -
07:00 5,7 -2,8   Kalm   1033,1 56 -
07:15 5,9 -2,8   Kalm 8,0 1033,1 54 -
07:30 5,9 -2,8 1,6 WNW 6,4 1033,4 54 -
07:45 6,1 -2,8   Kalm 4,8 1033,4 54 -
08:00 6,3 -2,8 3,2 WNW 4,8 1033,4 54 -
08:15 6,4 -2,2 4,8 WNW 4,8 1033,7 55 -
08:30 6,6 -2,2 3,2 NW 11,3 1033,7 55 -
08:45 6,7 -1,7 3,2 NNW 9,7 1033,7 56 -

Download your copy of this data-set  here

Our weather-data as stored at Weather Underground. Script ontwikkeld door Jim McMurry. Aangepast voor de template door Leuven-Template.eu

U vindt ons ook hier:

Het Weer Aktueel

European Weather Network

Weather Underground

Apparatuur in gebruik:

Weerstation
Oregon WMR 200

Webleverancier
one.com

Oregon WMR 200

one.com